Wind_Speed
38 39 37 35 32 29 27 26 26 26 25 25 26 24 24 25 22 22 22 23 24 23 22 21 20 22 22 22 19 18 21 22 24 24 19 16 17 19 20 21 20 19 19 19 15 8 1
38 38 39 40 39 36 34 33 32 32 31 31 30 29 29 26 27 23 23 23 25 25 25 24 23 23 24 23 19 17 19 22 21 22 20 16 13 13 14 15 15 15 13 12 12 10 5
41 38 39 40 40 39 39 37 36 36 37 32 29 27 27 25 25 26 24 24 25 27 27 27 25 24 24 22 20 20 21 21 20 19 18 16 15 13 12 12 12 11 11 9 6 4 2
44 41 38 37 38 38 39 38 38 37 35 31 30 25 27 25 24 26 27 26 26 26 27 27 26 23 22 22 23 23 24 24 21 18 17 16 15 14 14 14 14 12 8 8 8 9 9
47 46 42 39 38 38 37 36 36 35 32 30 29 28 28 27 27 25 26 28 28 28 25 24 24 24 24 26 27 27 28 28 27 23 19 16 16 16 17 16 16 17 19 18 16 16 17
51 48 46 44 42 39 38 36 34 33 32 33 32 30 30 29 29 28 28 28 28 27 26 25 25 27 29 31 31 30 30 29 27 26 24 20 17 17 18 19 20 19 20 23 25 24 26
57 54 53 51 49 45 43 41 39 35 38 36 33 32 29 28 30 29 30 30 30 29 30 30 31 32 33 31 30 28 26 25 26 25 24 22 23 22 22 22 23 24 25 25 28 30 32
62 59 59 55 54 50 48 47 46 44 43 39 35 32 31 31 31 31 30 32 33 33 33 35 36 34 31 30 28 26 23 23 23 24 25 26 27 29 30 31 31 30 28 28 31 34 38
63 62 59 56 55 52 52 50 49 46 44 39 36 36 35 33 32 33 34 33 32 32 34 31 33 33 31 29 29 27 28 28 29 30 31 32 34 36 37 37 36 35 35 35 36 38 39
67 65 62 56 56 52 50 46 45 42 40 41 40 41 39 37 36 35 35 34 34 33 33 36 35 33 32 33 32 33 34 34 36 36 37 39 39 40 40 41 41 39 40 41 41 42 44
68 67 66 58 59 55 53 51 47 47 47 46 45 43 42 40 38 36 35 33 33 34 33 35 34 35 35 35 35 36 37 38 38 39 41 41 44 44 43 44 47 49 49 49 50 51 50
75 69 67 60 59 60 57 56 54 50 50 50 49 49 46 43 40 39 38 37 37 35 35 32 33 34 35 35 37 39 40 41 43 46 47 47 49 49 49 50 54 56 56 58 58 59 60
82 75 70 65 59 63 63 60 57 55 53 54 55 53 48 46 43 42 41 40 38 38 35 34 36 35 37 41 41 42 42 45 47 49 52 53 54 54 56 58 61 63 63 64 61 62 62
87 80 75 69 65 64 64 61 60 60 59 60 59 56 51 49 48 46 45 41 39 38 40 40 39 40 46 47 47 48 48 51 52 53 57 56 58 58 59 63 66 68 69 68 67 67 63
89 89 81 74 71 69 67 65 63 62 63 62 62 60 58 53 49 47 46 43 44 45 43 42 43 44 48 52 52 53 54 57 56 61 60 61 60 65 64 68 68 69 71 72 68 69 64
92 94 87 81 76 73 74 72 70 67 66 62 62 63 62 58 53 50 47 47 49 49 48 51 51 54 57 55 55 58 60 63 62 64 63 66 64 70 71 72 72 73 77 76 74 73 72
106 100 92 87 81 78 75 72 71 70 70 69 65 64 62 62 58 52 49 51 52 52 55 58 59 60 59 60 62 63 64 67 69 67 67 66 70 73 75 75 77 79 80 79 80 81 79
109 106 98 92 91 86 80 76 75 75 73 72 71 67 66 67 63 57 56 58 56 57 60 59 60 64 66 66 67 70 70 71 73 72 69 75 74 74 78 78 79 80 83 85 86 85 90
115 113 100 98 93 91 86 82 80 80 77 76 75 72 70 70 69 67 65 65 65 66 64 65 67 68 69 70 70 73 75 76 77 76 77 76 75 83 80 81 82 82 87 89 90 92 93
120 113 107 100 98 93 91 88 87 85 85 83 81 79 74 74 73 72 71 72 73 72 70 70 71 73 77 79 77 76 79 78 79 79 81 82 86 86 85 85 84 86 88 92 90 92 93
124 116 112 107 102 96 95 93 88 88 90 89 86 82 77 78 79 80 79 79 79 78 79 78 78 81 82 84 84 84 82 81 81 83 87 87 86 90 88 87 88 89 93 92 92 92 90
125 120 118 113 108 102 97 94 94 94 93 94 92 84 79 79 82 82 82 82 82 80 80 80 82 83 83 82 81 84 84 85 87 91 91 94 93 87 89 92 93 93 91 94 96 91 89
129 122 121 114 113 108 101 97 94 92 96 95 91 84 83 82 81 81 81 83 85 82 79 81 83 83 85 85 86 87 89 89 89 95 98 98 95 96 93 96 93 89 95 97 94 93 95
127 124 120 117 115 115 105 102 98 94 96 96 91 88 86 84 86 83 84 87 84 79 82 84 85 87 90 90 93 95 94 95 97 101 101 100 100 100 98 94 90 94 96 95 96 94 99
131 126 119 118 117 115 113 111 111 103 97 101 99 93 90 90 89 88 86 88 89 88 89 93 94 94 93 91 93 94 97 101 104 101 100 99 101 99 98 97 93 95 96 98 98 95 105
133 129 125 121 118 115 116 114 111 108 103 104 103 99 91 92 92 90 93 93 96 96 96 93 96 97 98 98 103 103 104 106 101 93 100 100 100 102 101 100 97 96 101 101 103 102 109
135 132 128 122 118 115 114 112 111 108 105 101 104 103 102 100 96 95 96 99 100 99 101 101 101 103 104 104 104 98 96 96 95 98 99 99 101 102 102 104 100 101 101 104 109 113 115
132 132 128 124 123 122 117 113 114 112 107 105 106 108 104 102 101 101 104 106 105 104 105 103 101 98 100 98 99 96 94 95 99 99 102 100 103 104 104 103 101 100 106 111 114 118 122
131 129 126 125 121 118 117 117 118 114 111 111 111 110 109 107 106 103 104 105 107 107 105 102 100 102 102 101 97 93 92 98 99 99 98 100 101 103 104 101 106 109 112 115 119 124 127
Wind_Direction
229 229 227 231 231 234 237 242 254 261 271 283 287 290 282 273 279 279 281 285 287 295 303 305 310 324 331 339 348 353 357 357 360 1 4 8 11 18 28 33 42 41 51 57 59 53 29
240 235 234 236 238 240 244 253 259 261 265 277 279 282 289 273 273 279 278 283 289 291 294 299 307 314 321 325 335 339 346 350 349 354 357 360 352 353 10 17 24 34 39 45 50 51 50
238 242 240 241 243 247 249 253 257 258 264 269 272 278 282 278 279 278 279 282 284 286 288 294 302 308 316 320 323 332 336 338 341 344 347 350 352 342 337 342 349 353 1 11 9 355 311
240 241 244 247 247 249 251 254 257 260 262 265 265 264 270 269 277 274 275 280 283 287 287 289 294 300 312 316 319 322 327 332 331 330 332 329 334 338 332 317 310 311 309 302 300 295 292
240 244 244 248 252 255 254 256 258 261 261 261 260 261 264 261 268 275 276 276 280 287 286 289 293 302 307 311 314 315 319 320 322 318 319 314 309 317 318 313 301 294 294 294 288 279 275
246 246 244 246 247 250 256 258 256 257 256 259 261 261 259 262 266 273 277 277 281 285 284 287 294 301 305 305 306 308 310 312 313 311 309 307 303 300 304 305 305 299 288 286 285 283 282
245 247 247 249 245 247 249 251 253 254 253 258 257 258 257 261 268 270 274 275 278 281 284 287 292 296 300 302 303 304 305 306 306 305 303 302 301 300 299 298 296 298 294 286 284 282 282
240 243 246 246 246 245 245 248 250 250 251 255 253 254 256 266 274 269 270 273 274 278 282 287 291 293 295 300 301 302 304 306 303 302 300 301 300 300 301 297 296 295 291 287 287 284 281
243 242 243 243 246 245 244 247 250 251 251 246 250 256 259 263 269 271 271 272 274 277 281 285 293 292 292 296 299 299 301 302 304 303 302 302 302 302 302 301 299 296 296 295 293 289 284
242 244 246 244 243 243 246 244 248 247 246 247 254 258 261 265 272 272 274 276 278 279 283 290 292 293 296 298 295 295 298 296 298 299 301 302 302 300 296 294 293 291 294 293 293 291 287
241 242 241 244 244 243 245 245 247 247 247 251 254 258 262 268 269 270 273 275 277 280 283 287 289 291 294 296 295 294 295 297 294 298 303 304 303 301 296 292 290 290 292 292 292 292 289
238 237 241 242 244 240 246 248 248 246 250 254 256 260 263 267 265 266 267 270 272 276 279 279 286 291 294 295 298 296 296 299 299 298 302 302 304 302 296 293 294 295 293 293 294 295 296
239 237 238 241 242 243 249 251 250 250 250 253 258 259 260 262 262 262 262 266 269 271 267 274 281 286 291 292 296 297 299 299 300 300 299 302 303 303 302 300 299 297 296 297 296 296 295
240 238 237 240 241 244 247 247 250 252 255 254 255 255 258 258 261 259 262 264 265 263 272 275 279 284 294 297 295 296 297 299 298 299 300 299 299 300 302 302 298 297 297 297 296 298 296
235 237 236 237 240 240 243 244 251 255 254 251 251 252 255 255 258 255 259 262 262 266 268 275 282 288 290 292 296 296 297 299 296 297 299 302 296 304 298 301 298 296 293 296 293 293 291
232 233 234 235 239 239 240 245 248 252 250 249 251 251 255 254 253 258 262 267 270 269 272 278 280 286 289 290 291 291 294 297 301 297 296 302 296 302 301 294 299 295 294 293 292 294 293
232 234 234 234 236 239 241 244 248 251 251 250 254 253 255 252 252 257 264 267 269 273 276 278 279 285 288 289 290 292 295 296 297 298 296 298 299 300 299 295 296 294 292 292 293 294 295
231 233 234 234 238 239 240 242 246 249 251 252 253 254 254 253 250 254 260 261 262 268 271 274 279 284 285 289 290 292 292 294 297 297 295 298 299 300 297 293 295 293 291 291 292 293 297
232 233 232 235 236 240 242 245 247 251 252 254 254 253 254 257 256 259 261 265 266 270 274 276 278 283 284 286 285 288 289 292 294 294 293 297 297 300 295 294 295 294 290 292 294 296 297
232 234 232 232 235 238 241 242 246 248 250 254 254 254 254 258 260 262 263 264 267 269 270 273 278 281 284 285 286 288 290 291 293 293 293 293 299 298 297 292 291 291 293 294 297 296 299
232 233 236 234 233 233 238 243 244 247 252 255 257 257 257 260 260 262 265 267 269 272 275 278 280 279 283 284 284 285 286 288 291 292 291 294 296 296 295 293 293 294 294 295 297 297 300
232 232 235 237 234 234 234 239 241 245 248 251 254 257 258 261 263 266 269 272 273 274 277 278 278 278 277 277 279 283 284 286 289 293 293 294 293 291 292 292 294 297 294 296 300 301 303
231 232 233 235 238 236 235 236 241 245 247 251 253 253 258 260 264 267 270 270 272 273 274 274 273 274 277 278 279 281 284 287 292 294 293 294 292 294 293 292 295 296 297 301 303 304 301
229 231 233 235 238 238 237 238 240 243 245 249 250 251 254 256 258 262 266 269 271 273 275 275 276 276 279 279 283 287 289 291 292 294 295 294 293 294 293 293 296 297 300 300 302 301 297
230 230 232 235 238 240 242 242 243 244 245 247 252 254 256 260 262 265 266 268 271 272 276 278 279 280 281 283 285 287 289 293 294 295 294 293 293 294 293 294 295 299 299 300 300 301 299
229 231 232 234 236 239 242 244 246 248 249 249 249 255 259 262 264 267 268 269 272 274 276 278 281 280 282 284 286 290 292 294 295 290 291 293 293 294 294 294 295 299 298 301 300 299 300
228 230 232 234 236 238 241 244 246 250 252 252 251 254 258 259 263 264 267 269 271 274 276 280 282 284 286 286 289 290 289 290 290 290 290 292 293 294 293 295 297 298 300 300 299 300 302
228 231 232 235 237 239 241 244 247 250 252 253 253 255 256 257 259 263 265 268 270 273 276 279 281 282 284 284 284 285 287 288 289 290 291 291 292 293 294 296 298 298 298 299 301 303 306
229 231 232 233 238 240 241 243 244 249 253 254 254 254 256 258 261 264 266 269 270 272 275 278 278 280 281 281 282 283 284 287 287 288 288 289 292 293 293 298 298 298 300 300 303 308 310
Height
10748 10750 10752 10754 10756 10759 10760 10762 10763 10764 10765 10765 10766 10766 10766 10765 10765 10764 10763 10762 10762 10760 10760 10759 10757 10755 10754 10752 10749 10746 10743 10740 10737 10734 10731 10729 10727 10725 10723 10721 10719 10718 10719 10719 10718 10718 10721
10739 10743 10745 10748 10750 10752 10754 10756 10758 10759 10759 10760 10761 10762 10761 10761 10760 10760 10760 10759 10758 10757 10756 10755 10755 10753 10752 10750 10748 10745 10742 10740 10738 10735 10732 10730 10728 10728 10726 10725 10723 10722 10722 10721 10722 10723 10723
10731 10734 10738 10740 10742 10744 10746 10749 10751 10752 10754 10755 10756 10756 10756 10756 10756 10756 10755 10755 10754 10753 10752 10752 10751 10750 10749 10748 10746 10744 10742 10740 10737 10735 10733 10731 10729 10728 10727 10727 10726 10725 10724 10723 10723 10723 10723
10723 10726 10730 10733 10736 10738 10739 10742 10744 10746 10747 10748 10749 10750 10751 10751 10751 10751 10750 10749 10749 10748 10748 10748 10747 10747 10745 10744 10742 10741 10739 10737 10736 10734 10732 10730 10729 10727 10726 10725 10726 10725 10725 10724 10722 10721 10721
10714 10719 10722 10725 10728 10731 10733 10735 10737 10739 10740 10742 10743 10744 10745 10745 10745 10745 10745 10744 10744 10743 10743 10743 10743 10742 10741 10740 10738 10737 10735 10734 10733 10732 10731 10729 10727 10725 10725 10724 10723 10723 10723 10722 10721 10719 10718
10704 10708 10713 10716 10719 10722 10725 10727 10729 10732 10733 10735 10737 10738 10739 10739 10739 10739 10739 10739 10739 10738 10738 10738 10738 10738 10737 10735 10734 10733 10731 10729 10728 10728 10727 10725 10724 10723 10722 10721 10720 10719 10719 10717 10716 10715 10713
10692 10697 10702 10706 10710 10713 10717 10719 10722 10724 10726 10728 10730 10731 10732 10733 10733 10733 10734 10734 10734 10733 10733 10733 10732 10732 10731 10730 10729 10728 10726 10725 10724 10723 10722 10721 10720 10719 10718 10717 10716 10715 10714 10712 10710 10708 10705
10679 10685 10691 10695 10700 10704 10707 10710 10713 10716 10718 10721 10723 10724 10725 10726 10726 10726 10727 10727 10727 10727 10727 10727 10726 10725 10724 10723 10723 10721 10721 10721 10720 10719 10718 10716 10715 10714 10713 10711 10710 10708 10707 10705 10703 10701 10697
10667 10673 10678 10684 10688 10693 10697 10701 10704 10707 10710 10713 10715 10717 10718 10719 10719 10719 10720 10720 10720 10721 10721 10721 10721 10720 10719 10718 10717 10716 10715 10714 10713 10712 10710 10709 10708 10706 10705 10703 10702 10699 10698 10695 10694 10692 10688
10652 10660 10667 10672 10677 10682 10687 10691 10695 10698 10701 10704 10706 10708 10710 10711 10711 10712 10713 10713 10714 10714 10715 10714 10713 10713 10712 10711 10711 10709 10708 10708 10707 10705 10703 10701 10699 10697 10696 10693 10692 10689 10687 10685 10682 10681 10678
10637 10645 10654 10660 10666 10671 10676 10681 10685 10689 10692 10695 10697 10699 10701 10702 10703 10704 10705 10706 10706 10707 10708 10706 10705 10704 10704 10703 10702 10701 10700 10699 10698 10696 10694 10692 10690 10687 10686 10684 10681 10679 10676 10673 10670 10667 10665
10621 10631 10639 10647 10654 10659 10665 10670 10675 10679 10682 10685 10687 10690 10692 10694 10695 10695 10696 10697 10699 10699 10699 10699 10697 10696 10696 10694 10693 10691 10690 10689 10688 10686 10683 10681 10679 10677 10675 10672 10669 10666 10663 10660 10656 10652 10649
10605 10616 10625 10633 10641 10647 10653 10658 10663 10667 10671 10674 10677 10680 10682 10684 10686 10686 10686 10688 10690 10689 10689 10689 10689 10688 10687 10685 10684 10682 10680 10678 10676 10674 10671 10669 10666 10664 10661 10658 10655 10651 10647 10644 10642 10636 10632
10587 10599 10609 10619 10626 10633 10640 10645 10651 10655 10659 10663 10665 10669 10671 10673 10675 10676 10677 10678 10680 10679 10680 10680 10679 10679 10677 10675 10674 10672 10670 10667 10664 10661 10659 10656 10653 10650 10647 10644 10640 10636 10632 10627 10625 10622 10618
10569 10579 10592 10603 10611 10618 10626 10632 10637 10642 10646 10650 10653 10657 10660 10662 10664 10665 10667 10669 10669 10668 10669 10668 10668 10667 10665 10663 10662 10659 10657 10655 10652 10649 10646 10643 10641 10636 10631 10628 10625 10619 10614 10609 10605 10602 10601
10550 10560 10574 10587 10595 10602 10609 10617 10623 10627 10632 10636 10639 10643 10648 10651 10652 10654 10658 10659 10657 10659 10659 10657 10656 10656 10653 10650 10648 10646 10644 10641 10638 10633 10631 10628 10626 10620 10616 10611 10606 10600 10594 10588 10584 10583 10582
10530 10544 10559 10570 10579 10585 10593 10602 10607 10611 10615 10620 10624 10630 10634 10636 10640 10643 10647 10646 10645 10647 10647 10646 10643 10642 10640 10637 10634 10631 10629 10626 10622 10619 10615 10611 10607 10602 10597 10593 10588 10582 10576 10569 10564 10559 10557
10509 10525 10538 10552 10562 10567 10576 10584 10590 10594 10599 10604 10608 10615 10617 10621 10626 10631 10633 10631 10632 10635 10635 10633 10630 10629 10626 10623 10619 10617 10612 10609 10606 10602 10598 10593 10590 10584 10579 10575 10570 10564 10554 10548 10543 10540 10532
10489 10503 10522 10533 10544 10551 10559 10566 10573 10578 10582 10586 10591 10598 10604 10607 10613 10616 10618 10616 10617 10619 10618 10619 10617 10615 10611 10607 10605 10601 10596 10593 10589 10584 10582 10576 10571 10565 10561 10557 10550 10543 10533 10526 10520 10513 10505
10469 10483 10501 10515 10524 10535 10542 10549 10556 10562 10567 10569 10572 10580 10592 10593 10600 10601 10601 10601 10602 10603 10604 10604 10602 10599 10593 10591 10588 10585 10579 10576 10571 10566 10562 10559 10552 10544 10539 10537 10533 10523 10510 10502 10495 10485 10483
10452 10463 10477 10495 10504 10517 10526 10536 10544 10549 10550 10550 10553 10564 10578 10580 10581 10582 10582 10585 10586 10587 10588 10588 10587 10580 10576 10573 10570 10567 10563 10559 10553 10547 10544 10539 10534 10524 10515 10512 10508 10505 10490 10478 10471 10460 10454
10430 10447 10458 10472 10487 10500 10510 10519 10524 10531 10535 10533 10538 10550 10558 10561 10561 10563 10564 10565 10565 10570 10572 10572 10568 10562 10560 10557 10554 10548 10545 10541 10537 10527 10523 10517 10513 10507 10499 10486 10485 10484 10462 10451 10443 10438 10428
10409 10427 10439 10453 10462 10480 10492 10503 10506 10514 10517 10517 10525 10535 10539 10543 10544 10543 10547 10543 10545 10551 10555 10552 10547 10543 10541 10539 10536 10532 10527 10522 10518 10508 10500 10496 10486 10483 10482 10467 10464 10461 10445 10429 10422 10413 10402
10391 10406 10420 10434 10443 10456 10471 10482 10491 10497 10501 10502 10510 10515 10518 10524 10525 10528 10528 10527 10528 10533 10532 10528 10526 10523 10520 10518 10516 10513 10508 10502 10495 10489 10478 10470 10460 10456 10455 10444 10445 10436 10424 10413 10407 10401 10385
10370 10387 10401 10413 10424 10435 10448 10461 10468 10479 10489 10490 10492 10496 10502 10502 10504 10508 10510 10509 10509 10511 10508 10506 10505 10502 10499 10496 10493 10491 10486 10481 10472 10466 10455 10444 10435 10428 10423 10421 10423 10414 10396 10388 10384 10387 10362
10353 10365 10382 10393 10405 10416 10424 10438 10447 10461 10468 10472 10475 10480 10482 10481 10486 10489 10491 10491 10489 10489 10488 10485 10483 10482 10478 10475 10470 10467 10462 10456 10450 10442 10431 10421 10412 10404 10397 10392 10398 10396 10373 10369 10360 10360 10344
10333 10344 10360 10372 10386 10398 10406 10417 10423 10435 10446 10453 10458 10457 10463 10467 10470 10472 10472 10469 10468 10471 10469 10463 10459 10459 10455 10450 10449 10445 10441 10434 10428 10421 10411 10401 10392 10382 10371 10368 10377 10362 10356 10345 10333 10324 10315
10312 10325 10341 10354 10366 10379 10390 10402 10406 10412 10425 10433 10436 10438 10445 10453 10452 10452 10450 10452 10451 10451 10450 10446 10442 10439 10434 10432 10429 10423 10421 10413 10405 10396 10388 10380 10369 10360 10351 10346 10348 10342 10330 10317 10307 10298 10283
10294 10308 10322 10334 10347 10359 10373 10381 10389 10396 10402 10412 10415 10419 10423 10429 10433 10432 10431 10430 10430 10431 10431 10426 10424 10417 10416 10411 10407 10404 10401 10393 10383 10378 10367 10359 10346 10336 10330 10331 10317 10309 10301 10289 10279 10266 10251